| time (UTC) | temp C | wind direction | speed KPH | gust KPH | rain 1hr cm | rain 24hr cm | rain mn cm | humidity % | barometer mb |
| 20260503201544 | 20 | 310 | 3.2 | 16.1 | 0.00 | 0.00 | 0.00 | 45 | 1017.7 |
| 20260503200042 | 20 | 54 | 4.8 | 12.9 | 0.00 | 0.00 | 0.00 | 44 | 1017.9 |
| 20260503194539 | 20 | 159 | 1.6 | 9.7 | 0.00 | 0.00 | 0.00 | 49 | 1018.2 |
| 20260503193038 | 20 | 286 | 1.6 | 11.3 | 0.00 | 0.00 | 0.00 | 46 | 1018.3 |
| 20260503191537 | 20 | 176 | 3.2 | 12.9 | 0.00 | 0.00 | 0.00 | 46 | 1018.8 |
| 20260503190035 | 20 | 265 | 3.2 | 9.7 | 0.00 | 0.00 | 0.00 | 49 | 1018.9 |
| 20260503184551 | 20 | 167 | 3.2 | 14.5 | 0.00 | 0.00 | 0.00 | 51 | 1019.4 |
| 20260503183034 | 19 | 122 | 1.6 | 12.9 | 0.00 | 0.00 | 0.00 | 54 | 1019.4 |
| 20260503181534 | 20 | 134 | 3.2 | 9.7 | 0.00 | 0.00 | 0.00 | 43 | 1019.5 |
| 20260503180036 | 19 | 207 | 3.2 | 12.9 | 0.00 | 0.00 | 0.00 | 48 | 1019.6 |
| 20260503174532 | 20 | 298 | 0.0 | 12.9 | 0.00 | 0.00 | 0.00 | 53 | 1019.6 |
| 20260503173033 | 18 | 246 | 3.2 | 6.4 | 0.00 | 0.00 | 0.00 | 51 | 1019.8 |
| 20260503171524 | 18 | 252 | 4.8 | 14.5 | 0.00 | 0.00 | 0.00 | 52 | 1020.1 |
| 20260503081602 | 7 | 290 | 0.0 | 0.0 | 0.00 | 0.66 | 0.41 | 94 | 1017.6 |
| 20260503080109 | 7 | 290 | 0.0 | 0.0 | 0.00 | 0.71 | 0.41 | 94 | 1017.4 |
| 20260503071605 | 8 | 290 | 0.0 | 0.0 | 0.00 | 0.71 | 0.41 | 94 | 1017.0 |
| 20260503054556 | 9 | 290 | 0.0 | 0.0 | 0.00 | 0.71 | 0.41 | 94 | 1016.8 |
| 20260503053043 | 9 | 290 | 0.0 | 0.0 | 0.00 | 0.71 | 0.41 | 94 | 1016.7 |
| 20260503051542 | 10 | 290 | 0.0 | 0.0 | 0.00 | 0.71 | 0.41 | 94 | 1016.6 |
| 20260503050045 | 10 | 290 | 0.0 | 0.0 | 0.00 | 0.71 | 0.41 | 94 | 1016.5 |
| 20260503044548 | 10 | 290 | 0.0 | 0.0 | 0.00 | 0.71 | 0.41 | 94 | 1016.3 |
| 20260503043044 | 11 | 290 | 0.0 | 0.0 | 0.00 | 0.71 | 0.41 | 94 | 1016.3 |
| 20260503041534 | 11 | 290 | 0.0 | 0.0 | 0.00 | 0.71 | 0.41 | 94 | 1016.2 |
| 20260503040038 | 11 | 290 | 0.0 | 1.6 | 0.00 | 0.71 | 0.41 | 94 | 1016.3 |
| 20260503034533 | 11 | 290 | 0.0 | 1.6 | 0.00 | 0.71 | 0.41 | 94 | 1016.1 |
| 20260503033032 | 11 | 291 | 0.0 | 4.8 | 0.00 | 0.71 | 0.41 | 94 | 1016.0 |
| 20260503031533 | 11 | 155 | 1.6 | 4.8 | 0.00 | 0.71 | 0.41 | 94 | 1015.7 |
| 20260503030030 | 11 | 188 | 0.0 | 3.2 | 0.00 | 0.71 | 0.41 | 94 | 1015.8 |
| 20260503024530 | 11 | 150 | 1.6 | 4.8 | 0.00 | 0.71 | 0.41 | 94 | 1015.5 |
| 20260503023029 | 11 | 221 | 0.0 | 0.0 | 0.00 | 0.71 | 0.41 | 94 | 1015.8 |
| 20260503021527 | 11 | 230 | 0.0 | 0.0 | 0.00 | 0.71 | 0.41 | 94 | 1015.4 |
| 20260503020025 | 11 | 230 | 0.0 | 0.0 | 0.00 | 0.71 | 0.41 | 94 | 1015.1 |
| 20260503014522 | 11 | 230 | 0.0 | 0.0 | 0.00 | 0.71 | 0.41 | 93 | 1014.6 |
| 20260503013023 | 11 | 230 | 0.0 | 0.0 | 0.00 | 0.71 | 0.41 | 93 | 1014.3 |
| 20260503011523 | 11 | 230 | 0.0 | 0.0 | 0.00 | 0.71 | 0.41 | 93 | 1013.8 |
| 20260503010026 | 11 | 230 | 0.0 | 0.0 | 0.00 | 0.71 | 0.41 | 93 | 1013.8 |
| 20260503004517 | 11 | 230 | 0.0 | 0.0 | 0.00 | 0.71 | 0.41 | 92 | 1013.6 |
| 20260503003016 | 11 | 230 | 0.0 | 0.0 | 0.00 | 0.71 | 0.41 | 92 | 1013.4 |
| 20260503001515 | 12 | 230 | 0.0 | 0.0 | 0.00 | 0.71 | 0.41 | 91 | 1013.2 |
| 20260503000028 | 12 | 230 | 0.0 | 0.0 | 0.00 | 0.71 | 0.41 | 91 | 1013.1 |
| 20260502234513 | 13 | 230 | 0.0 | 0.0 | 0.00 | 0.71 | 0.41 | 91 | 1013.0 |
| 20260502233012 | 13 | 230 | 0.0 | 0.0 | 0.00 | 0.71 | 0.41 | 90 | 1012.7 |
| 20260502231513 | 13 | 53 | 0.0 | 0.0 | 0.00 | 0.71 | 0.41 | 89 | 1012.6 |
| 20260502230013 | 14 | 30 | 0.0 | 0.0 | 0.00 | 0.71 | 0.41 | 87 | 1012.3 |
| 20260502224512 | 14 | 30 | 0.0 | 1.6 | 0.00 | 0.71 | 0.41 | 85 | 1012.4 |
| 20260502223025 | 15 | 109 | 0.0 | 3.2 | 0.00 | 0.71 | 0.41 | 84 | 1012.4 |
| 20260502221511 | 14 | 146 | 0.0 | 4.8 | 0.00 | 0.71 | 0.41 | 85 | 1012.6 |
| 20260502220011 | 14 | 355 | 0.0 | 4.8 | 0.00 | 0.71 | 0.41 | 86 | 1012.7 |
| 20260502214510 | 14 | 56 | 0.0 | 8.0 | 0.00 | 0.71 | 0.41 | 87 | 1012.4 |
| 20260502213008 | 14 | 69 | 0.0 | 4.8 | 0.00 | 0.71 | 0.41 | 87 | 1012.3 |
| 20260502211508 | 14 | 342 | 0.0 | 4.8 | 0.00 | 0.71 | 0.41 | 88 | 1012.2 |
| 20260502210006 | 13 | 88 | 0.0 | 3.2 | 0.00 | 0.71 | 0.41 | 88 | 1012.2 |
| 20260502204505 | 13 | 71 | 1.6 | 4.8 | 0.00 | 0.71 | 0.41 | 89 | 1012.3 |
| 20260502203005 | 13 | 142 | 0.0 | 4.8 | 0.00 | 0.71 | 0.41 | 90 | 1012.2 |